Aérodrome :
LOGIN :

S'inscrire | Disclaimer

   EN    FR    IT 

 










Légende :    VFR   VFR Marginal   IFR   IFR Intensif   IFR Très Intensif
Visi : 
Plafond : 
>= 8 km
>= 3000ft
5 à 8 km
1000 à 3000 ft
1500m à 5 km
500 à 1000 ft
800 à 1500m
200 à 500 ft
< 800m
< 200 ft
Symboles :   Orages  Brouillard  Fortes neiges  Fortes précipitations  Vent > 20 kt
SIGMETs :   Divers  Orages  Givrage  Turbulence  Onde Orograph.  Cendres Volcan.







- Altitude de l'aérodrome : 74 ft
- Code IATA : LRH
- Voir les cartes d'approche


LFBH - La Rochelle Ile de Ré

DERNIER METAR :
  • 161700Z AUTO 23010KT 190V270 9999 FEW044 22/16 Q1021 NOSIG

METARs EXPIRÉS :
  • 161630Z AUTO 24011KT 220V280 9999 SCT044/// 22/16 Q1021 NOSIG
  • 161600Z AUTO 24012KT 200V270 CAVOK 22/17 Q1022 NOSIG
  • 161530Z AUTO 23010KT 200V260 CAVOK 23/17 Q1022 NOSIG
  • 161500Z AUTO 23011KT 210V270 9999 FEW017 23/17 Q1022 NOSIG
  • 161430Z AUTO 22012KT 190V250 9999 BKN015 23/17 Q1022 NOSIG

TAF TAF LFBH
Valide du 16 à 12h jusqu'au 17 à 12h UTC


161100Z 1612/1712 24008KT CAVOK
BECMG 1700/1702 BKN007
ATIS : +33 5 46 00 13 92
Pas de NOTAMs connus pour ce terrain.



MET'MAP, la Météo Aéronautique d'un coup d'oeil ! - Copyright ORBIFLY Décembre 2007 - Disclaimer

ORBIFLY MET'MAP TEAM :

Programmation & Développement : Alexandra Zaïnal
Conception & Développement : Baudouin d'Aumeries
Co-Programmation & Développement : Marc-Olivier Méhu
Soutien technique & logistique : Manuel Goepfert

Contact : metmap@orbifly.com




SOURCES & CREDITS :

   NOAA